• In Uzbekistan
  • List of Countries
  • For 7 days
  • Water Temperature
  • Satellite Maps
  • Weather Map
  • Weather Widgets
  • user-avatar
    Login

    Hourly Weather Talas

    Today, 24 January, Thursday

    Time Temperature Precipitation Wind Pressure Humidity
    00:00 -9°C° 0 mm 2 mps 595 mmHg 57%
    01:00 -9°C° 0 mm 2 mps 595 mmHg 57%
    02:00 -10°C° 0 mm 2 mps 595 mmHg 58%
    03:00 -10°C° 0 mm 2 mps 596 mmHg 58%
    04:00 -10°C° 0 mm 2 mps 596 mmHg 58%
    05:00 -10°C° 0 mm 2 mps 596 mmHg 58%
    06:00 -10°C° 0 mm 2 mps 597 mmHg 59%
    07:00 -10°C° 0 mm 2 mps 597 mmHg 60%
    08:00 -10°C° 0 mm 2 mps 597 mmHg 61%
    09:00 -9°C° 0 mm 2 mps 598 mmHg 60%
    10:00 -7°C° 0 mm 2 mps 599 mmHg 60%
    11:00 -6°C° 0 mm 2 mps 599 mmHg 60%
    12:00 -6°C° 0 mm 2 mps 599 mmHg 60%
    13:00 -4°C° 0 mm 1 mps 599 mmHg 60%
    14:00 -4°C° 0 mm 1 mps 599 mmHg 60%
    15:00 -6°C° 0 mm 1 mps 599 mmHg 63%
    16:00 -7°C° 0 mm 1 mps 599 mmHg 67%
    17:00 -8°C° 0 mm 1 mps 598 mmHg 71%
    18:00 -9°C° 0 mm 2 mps 599 mmHg 70%
    19:00 -10°C° 0 mm 2 mps 599 mmHg 69%
    20:00 -13°C° 0 mm 3 mps 599 mmHg 69%
    21:00 -13°C° 0 mm 3 mps 599 mmHg 68%
    22:00 -13°C° 0 mm 3 mps 599 mmHg 66%
    23:00 -13°C° 0 mm 3 mps 599 mmHg 65%

    Tomorrow, 25 January, Friday

    Time Temperature Precipitation Wind Pressure Humidity
    00:00 -13°C° 0 mm 3 mps 598 mmHg 64%
    01:00 -13°C° 0 mm 3 mps 598 mmHg 63%
    02:00 -13°C° 0 mm 3 mps 598 mmHg 61%
    03:00 -13°C° 0 mm 3 mps 598 mmHg 59%
    04:00 -13°C° 0 mm 3 mps 598 mmHg 57%
    05:00 -14°C° 0 mm 3 mps 598 mmHg 55%
    06:00 -13°C° 0 mm 3 mps 598 mmHg 53%
    07:00 -13°C° 0 mm 3 mps 598 mmHg 51%
    08:00 -13°C° 0 mm 3 mps 598 mmHg 49%
    09:00 -10°C° 0 mm 3 mps 598 mmHg 48%
    10:00 -7°C° 0 mm 2 mps 599 mmHg 47%
    11:00 -5°C° 0 mm 2 mps 600 mmHg 46%
    12:00 -5°C° 0 mm 2 mps 599 mmHg 45%
    13:00 -2°C° 0 mm 1 mps 599 mmHg 43%
    14:00 -2°C° 0 mm 1 mps 599 mmHg 42%
    15:00 -4°C° 0 mm 1 mps 598 mmHg 44%
    16:00 -6°C° 0 mm 1 mps 597 mmHg 47%
    17:00 -8°C° 0 mm 1 mps 596 mmHg 49%
    18:00 -9°C° 0 mm 2 mps 596 mmHg 48%
    19:00 -12°C° 0 mm 3 mps 596 mmHg 46%
    20:00 -12°C° 0 mm 3 mps 596 mmHg 45%
    21:00 -12°C° 0 mm 3 mps 596 mmHg 44%
    22:00 -12°C° 0 mm 4 mps 596 mmHg 42%
    23:00 -12°C° 0 mm 4 mps 595 mmHg 41%

    Day after tomorrow, 26 January, Saturday

    Time Temperature Precipitation Wind Pressure Humidity
    00:00 -12°C° 0 mm 4 mps 595 mmHg 40%
    01:00 -12°C° 0 mm 4 mps 595 mmHg 38%
    02:00 -12°C° 0 mm 4 mps 595 mmHg 37%
    03:00 -12°C° 0 mm 4 mps 595 mmHg 36%
    04:00 -12°C° 0 mm 4 mps 594 mmHg 36%
    05:00 -14°C° 0 mm 4 mps 594 mmHg 35%
    06:00 -14°C° 0 mm 4 mps 594 mmHg 34%
    07:00 -14°C° 0 mm 4 mps 595 mmHg 34%
    08:00 -14°C° 0 mm 4 mps 595 mmHg 34%
    09:00 -11°C° 0 mm 4 mps 596 mmHg 38%
    10:00 -8°C° 0 mm 3 mps 596 mmHg 41%
    11:00 -6°C° 0 mm 3 mps 597 mmHg 45%
    12:00 -5°C° 0 mm 3 mps 597 mmHg 44%
    13:00 -4°C° 0 mm 2 mps 597 mmHg 43%
    14:00 -3°C° 0 mm 2 mps 597 mmHg 42%
    15:00 -5°C° 0 mm 2 mps 597 mmHg 45%
    16:00 -7°C° 0 mm 2 mps 596 mmHg 48%
    17:00 -8°C° 0 mm 2 mps 595 mmHg 51%
    18:00 -10°C° 0 mm 3 mps 596 mmHg 49%
    19:00 -10°C° 0 mm 3 mps 596 mmHg 47%
    20:00 -11°C° 0 mm 4 mps 596 mmHg 45%
    21:00 -11°C° 0 mm 4 mps 596 mmHg 44%
    22:00 -11°C° 0 mm 4 mps 596 mmHg 43%
    23:00 -11°C° 0 mm 4 mps 596 mmHg 42%

    27 January, Sunday

    Time Temperature Precipitation Wind Pressure Humidity
    00:00 -11°C° 0 mm 4 mps 596 mmHg 42%
    01:00 -12°C° 0 mm 4 mps 596 mmHg 41%
    02:00 -12°C° 0 mm 4 mps 596 mmHg 40%
    03:00 -12°C° 0 mm 3 mps 596 mmHg 39%
    04:00 -12°C° 0 mm 3 mps 596 mmHg 38%
    05:00 -12°C° 0 mm 3 mps 596 mmHg 36%
    06:00 -12°C° 0 mm 3 mps 596 mmHg 36%
    07:00 -14°C° 0 mm 4 mps 596 mmHg 35%
    08:00 -14°C° 0 mm 4 mps 596 mmHg 34%
    09:00 -10°C° 0 mm 3 mps 597 mmHg 37%
    10:00 -8°C° 0 mm 3 mps 598 mmHg 40%
    11:00 -6°C° 0 mm 3 mps 599 mmHg 43%
    12:00 -5°C° 0 mm 3 mps 599 mmHg 43%
    13:00 -4°C° 0 mm 2 mps 598 mmHg 42%
    14:00 -4°C° 0 mm 2 mps 598 mmHg 41%
    15:00 -5°C° 0 mm 2 mps 598 mmHg 45%
    16:00 -6°C° 0 mm 2 mps 597 mmHg 48%
    17:00 -8°C° 0 mm 3 mps 597 mmHg 52%
    18:00 -9°C° 0 mm 3 mps 597 mmHg 51%
    19:00 -10°C° 0 mm 4 mps 597 mmHg 51%
    20:00 -11°C° 0 mm 4 mps 597 mmHg 50%
    21:00 -11°C° 0 mm 4 mps 596 mmHg 51%
    22:00 -11°C° 0 mm 4 mps 596 mmHg 52%
    23:00 -11°C° 0 mm 4 mps 596 mmHg 54%

    28 January, Monday

    Time Temperature Precipitation Wind Pressure Humidity
    00:00 -11°C° 0 mm 4 mps 596 mmHg 55%
    01:00 -11°C° 0 mm 4 mps 596 mmHg 56%
    02:00 -11°C° 0 mm 4 mps 596 mmHg 57%
    03:00 -11°C° 0 mm 4 mps 596 mmHg 56%
    04:00 -11°C° 0 mm 4 mps 596 mmHg 55%
    05:00 -11°C° 0 mm 4 mps 596 mmHg 53%
    06:00 -11°C° 0 mm 4 mps 596 mmHg 54%
    07:00 -10°C° 0 mm 4 mps 596 mmHg 56%
    08:00 -10°C° 0 mm 4 mps 596 mmHg 57%
    09:00 -9°C° 0 mm 4 mps 597 mmHg 59%
    10:00 -8°C° 0 mm 4 mps 597 mmHg 61%
    11:00 -5°C° 0 mm 4 mps 597 mmHg 63%
    12:00 -5°C° 0 mm 4 mps 597 mmHg 64%
    13:00 -5°C° 0 mm 4 mps 597 mmHg 64%
    14:00 -4°C° 0 mm 3 mps 597 mmHg 65%
    15:00 -5°C° 0 mm 3 mps 597 mmHg 67%
    16:00 -7°C° 0 mm 4 mps 596 mmHg 69%
    17:00 -7°C° 0 mm 4 mps 596 mmHg 71%
    18:00 -8°C° 0.1 mm 4 mps 596 mmHg 71%
    19:00 -8°C° 0.1 mm 4 mps 596 mmHg 70%
    20:00 -8°C° 0.1 mm 5 mps 595 mmHg 70%
    21:00 -8°C° 0.1 mm 5 mps 595 mmHg 70%
    22:00 -8°C° 0.1 mm 5 mps 595 mmHg 71%
    23:00 -7°C° 0.1 mm 5 mps 595 mmHg 71%

    29 January, Tuesday

    Time Temperature Precipitation Wind Pressure Humidity
    00:00 -7°C° 0.1 mm 5 mps 595 mmHg 72%
    01:00 -7°C° 0.1 mm 4 mps 594 mmHg 72%
    02:00 -7°C° 0.1 mm 4 mps 594 mmHg 73%
    03:00 -7°C° 0.2 mm 4 mps 594 mmHg 73%
    04:00 -7°C° 0.2 mm 4 mps 594 mmHg 74%
    05:00 -7°C° 0.2 mm 4 mps 594 mmHg 74%
    06:00 -7°C° 0.1 mm 5 mps 594 mmHg 74%
    07:00 -7°C° 0.1 mm 5 mps 593 mmHg 73%
    08:00 -6°C° 0.1 mm 5 mps 593 mmHg 73%
    09:00 -5°C° 0.1 mm 5 mps 594 mmHg 72%
    10:00 -3°C° 0.1 mm 4 mps 594 mmHg 72%
    11:00 -2°C° 0.1 mm 4 mps 594 mmHg 71%
    12:00 -1°C° 0.1 mm 4 mps 594 mmHg 71%
    13:00 0°C° 0.1 mm 3 mps 594 mmHg 70%
    14:00 +1°C° 0.1 mm 3 mps 594 mmHg 70%
    15:00 0°C° 0.1 mm 3 mps 593 mmHg 71%
    16:00 -1°C° 0.1 mm 3 mps 592 mmHg 73%
    17:00 -2°C° 0.1 mm 3 mps 592 mmHg 74%
    18:00 -2°C° 0.1 mm 3 mps 592 mmHg 74%
    19:00 -4°C° 0.1 mm 3 mps 591 mmHg 73%
    20:00 -4°C° 0.1 mm 4 mps 591 mmHg 72%
    21:00 -4°C° 0 mm 4 mps 591 mmHg 72%
    22:00 -4°C° 0 mm 4 mps 591 mmHg 71%
    23:00 -4°C° 0 mm 4 mps 591 mmHg 70%
    Show more